Location: *
(45.5667°S, 177.5167°W)
Time: 16:36:22
(UTC+00:00)

NOAA 6 - Pass Details

Date: 29 May 2022
Orbit: 772 x 786 km, 98.7° (Epoch: 28 June)

Event Time Altitude Azimuth Distance (km) Brightness Sun altitude
Exits shadow 06:29:20 28° 160° (SSE) 1,453 5.2 -22.4°
Maximum altitude 06:32:10 79° 76° (ENE) 802 3.9 -22.9°
Drops below altitude 10° 06:37:19 10° 349° (NNW) 2,326 6.7 -23.8°
Sets 06:39:37 0° 347° (NNW) 3,246 7.5 -24.2°
